sat.trackr.live / text

‹ back to catalog

GONETS-M 10

NORAD 40063 · 2014-036C

PAYLOAD ACTIVE UNKNOWN

§ Identity

Operator
Country
CIS
Launch date
2014-07-03
Launch site
PLMSC
Launch vehicle
Mass (kg)
RCS (m²)
1.72

External: N2YO · Heavens-Above · Gunter

§ Orbital elements

Epoch: 2026-09-10T05:34:22.800576Z

Period
115.85 min
Inclination
82.5050°
Eccentricity
0.0020988
Mean motion
12.42947710 rev/d
Perigee alt
1,477.6 km
Apogee alt
1,510.7 km
Semi-major
7,872.3 km
B*
2.5001e-4
RAAN
254.8438°
Arg perigee
319.4807°
Mean anomaly
40.4710°
Rev number
55,281

§ Raw data

GONETS-M 101 40063U 14036C   26253.23220834  .00000044  00000+0  25001-3 0  99972 40063  82.5050 254.8438 0020988 319.4807  40.4710 12.42947710552812

JSON: /api/v1/satellites/40063 · /tle

For live sub-satellite position, see the globe view (requires WebGL).

§ Visibility from observer

Set your observer location to see the next 7 days of passes ≥ 10°. The values pass through the URL so the page stays shareable.

No JS? Fill the form by hand. The geolocation button needs JavaScript.

§ Radio — SatNOGS DB

ModeDescriptionDownlinkUplink
FM UHF Unknown 388.687 MHz
FM UHF Unknown 388.787 MHz

2 transmitters · refreshed weekly from db.satnogs.org